EW4573 Weather Reports


time (UTC)temp
F
wind
direction
speed
knots
gust
knots
rain 1hr
in
rain 24hr
in
rain mn
in
humidity
%
barometer
mb
20260508064504 52 0 0.0 0.0 0.00 0.93 0.00 96 1013.4
20260508063604 52 0 0.0 0.0 0.00 0.93 0.00 96 1013.4
20260508062704 52 0 0.0 0.0 0.00 0.93 0.00 97 1013.4
20260508061804 52 0 0.0 0.0 0.00 0.93 0.00 96 1013.4
20260508060925 52 0 0.0 0.0 0.00 0.93 0.00 96 1013.3
20260508060025 52 0 0.0 0.0 0.00 0.93 0.00 96 1013.4
20260508055404 53 0 0.0 0.0 0.00 0.93 0.00 96 1013.4
20260508054504 53 0 0.0 0.0 0.00 0.93 0.00 96 1013.3
20260508053604 53 0 0.0 0.0 0.00 0.93 0.00 96 1013.4
20260508052704 53 0 0.0 0.0 0.00 0.93 0.00 96 1013.4
20260508051825 54 0 0.0 0.0 0.00 0.93 0.00 96 1013.3
20260508040904 54 0 0.0 0.0 0.00 1.20 0.00 96 1013.1
20260508040005 54 0 0.0 0.0 0.00 1.20 0.00 96 1013.1
20260508035404 54 0 0.0 0.0 0.00 1.20 1.20 96 1013.0
20260508034504 54 0 0.0 0.0 0.00 1.21 1.20 96 1013.0
20260508033604 54 71 0.0 0.9 0.00 1.21 1.20 96 1012.6
20260508032704 54 0 0.0 0.0 0.00 1.22 1.20 96 1012.6
20260508031804 55 0 0.0 0.0 0.00 1.23 1.20 96 1012.4
20260508030904 55 76 0.0 0.9 0.00 1.24 1.20 96 1012.4
20260508030005 55 0 0.0 0.0 0.00 1.24 1.20 96 1012.4
20260508025404 55 0 0.0 0.0 0.00 1.24 1.20 96 1012.3
20260508024525 55 0 0.0 0.0 0.00 1.24 1.20 96 1012.2
20260508023604 54 0 0.0 0.0 0.00 1.24 1.20 96 1012.1
20260508022704 55 0 0.0 0.0 0.00 1.24 1.20 96 1011.9
20260508021825 55 0 0.0 0.0 0.00 1.24 1.20 96 1011.9
20260508020904 54 0 0.0 0.0 0.00 1.24 1.20 95 1011.8
20260508020004 54 72 0.0 0.9 0.00 1.24 1.20 95 1011.6
20260508015404 54 72 0.0 0.9 0.00 1.24 1.20 95 1011.5
20260508014525 54 0 0.0 0.0 0.00 1.24 1.20 95 1011.7
20260508013604 54 0 0.0 0.0 0.00 1.24 1.20 95 1011.6
20260508010926 54 61 0.9 4.3 0.08 1.24 1.20 95 1010.8
20260508010004 55 71 0.9 4.3 0.11 1.24 1.20 95 1010.7
20260508005404 54 0 0.0 0.0 0.12 1.24 1.20 95 1010.7
20260508004504 54 0 0.0 0.0 0.13 1.24 1.20 95 1010.9
20260508003604 55 310 0.0 0.9 0.13 1.24 1.20 94 1010.8
20260508002704 55 74 0.9 1.7 0.12 1.23 1.19 94 1010.9
20260508001804 55 70 0.0 0.9 0.10 1.21 1.17 93 1010.9
20260508000905 55 7 0.0 2.6 0.05 1.16 1.12 93 1010.7
20260508000004 55 61 1.7 7.0 0.02 1.13 1.09 92 1010.5
20260507235404 55 55 1.7 6.1 0.01 1.12 1.08 91 1009.8
20260507234504 55 51 1.7 4.3 0.00 1.11 1.07 91 1009.4
20260507233604 55 48 1.7 6.1 0.00 1.11 1.07 90 1009.5
20260507232726 55 45 1.7 4.3 0.00 1.11 1.07 91 1009.7
20260507231804 56 55 2.6 6.1 0.00 1.11 1.07 91 1009.7
20260507230904 56 53 2.6 7.0 0.00 1.11 1.07 91 1009.7
20260507220004 56 42 1.7 6.1 0.00 1.11 1.07 90 1009.1
20260507215404 56 45 1.7 5.2 0.00 1.11 1.07 90 1009.2
20260507214525 55 42 2.6 7.0 0.00 1.11 1.07 90 1009.2
20260507213604 55 59 4.3 9.6 0.00 1.11 1.07 90 1009.2
20260507212704 56 56 4.3 11.3 0.00 1.11 1.07 91 1009.0
20260507211804 56 63 4.3 9.6 0.00 1.11 1.07 91 1009.0
20260507210904 56 50 4.3 9.6 0.00 1.11 1.07 92 1008.9
20260507210005 57 68 4.3 10.4 0.00 1.11 1.07 92 1008.7
20260507205404 57 64 3.5 8.7 0.00 1.11 1.07 92 1008.4
20260507204525 58 56 3.5 9.6 0.00 1.11 1.07 93 1008.4
20260507203604 58 61 2.6 8.7 0.00 1.11 1.07 93 1008.3
20260507202704 58 63 2.6 8.7 0.00 1.11 1.07 93 1008.2
20260507201804 58 66 3.5 8.7 0.00 1.11 1.07 93 1008.1
20260507200904 58 56 3.5 7.0 0.00 1.11 1.07 93 1008.2
20260507200004 58 69 4.3 9.6 0.00 1.11 1.07 92 1008.4
20260507195404 58 58 5.2 12.2 0.00 1.11 1.07 93 1008.4
20260507194504 58 66 4.3 12.2 0.00 1.11 1.07 93 1008.2
20260507193625 58 29 1.7 5.2 0.01 1.11 1.07 94 1008.3
20260507192704 59 55 3.5 8.7 0.02 1.11 1.07 94 1008.1
20260507191804 59 53 3.5 8.7 0.02 1.13 1.07 94 1008.1
20260507190925 59 21 2.6 7.0 0.02 1.16 1.07 94 1008.3
20260507190005 59 48 2.6 7.8 0.02 1.18 1.07 94 1008.3
20260507185404 60 46 3.5 8.7 0.02 1.18 1.07 94 1007.9
20260507184504 60 48 4.3 9.6 0.02 1.18 1.07 93 1007.0
20260507183604 61 27 3.5 9.6 0.01 1.17 1.06 93 1008.0
20260507182704 62 29 0.9 5.2 0.00 1.16 1.05 94 1007.9
20260507181804 62 36 1.7 7.0 0.00 1.16 1.05 93 1007.7
20260507180904 64 52 4.3 7.8 0.00 1.16 1.05 90 1007.2
20260507175404 70 242 0.0 1.7 0.00 1.16 1.05 93 1007.3
20260507174504 70 262 0.0 2.6 0.00 1.16 1.05 93 1007.5
20260507173604 70 262 0.0 2.6 0.00 1.16 1.05 93 1007.7
20260507172704 71 250 0.0 0.9 0.00 1.16 1.05 94 1007.4
20260507161804 68 253 0.0 2.6 0.01 1.16 1.05 95 1008.3
20260507160904 68 232 0.0 2.6 0.00 1.15 1.04 95 1008.7
20260507160004 68 241 0.0 5.2 0.01 1.15 1.04 95 1008.7
20260507155404 68 231 0.0 2.6 0.01 1.15 1.04 95 1009.0
20260507154504 68 270 0.0 2.6 0.02 1.15 1.04 95 1008.6
20260507153604 68 231 0.0 1.7 0.04 1.15 1.04 95 1008.4
20260507152725 68 273 0.0 2.6 0.08 1.15 1.04 96 1008.0
20260507151825 68 182 0.0 1.7 0.15 1.15 1.04 96 1008.3
20260507150904 67 308 0.0 2.6 0.23 1.15 1.04 96 1008.2
20260507150025 67 154 0.0 1.7 0.42 1.14 1.03 96 1008.5
20260507145404 67 264 0.0 0.9 0.45 1.14 1.03 96 1008.5
20260507144525 67 181 0.0 2.6 0.49 1.13 1.02 96 1008.9
20260507143604 67 240 0.9 4.3 0.47 1.11 1.00 96 1008.8
20260507142704 67 211 0.0 3.5 0.43 1.07 0.96 96 1008.9
20260507141804 67 176 0.0 1.7 0.36 1.00 0.89 96 1008.7
20260507140904 67 172 0.9 3.5 0.28 0.92 0.81 96 1009.0
20260507140025 67 291 0.0 0.9 0.08 0.72 0.62 96 1009.3
20260507135404 67 287 0.0 0.9 0.06 0.69 0.58 96 1009.1
20260507134504 67 0 0.0 0.0 0.02 0.64 0.53 96 1009.1
20260507133604 67 0 0.0 0.0 0.02 0.64 0.53 96 1009.2
20260507132704 67 268 0.0 0.9 0.02 0.64 0.53 95 1009.1
20260507120904 66 187 0.0 1.7 0.01 0.62 0.51 96 1009.2
20260507120004 66 207 0.0 1.7 0.01 0.62 0.51 96 1009.3
20260507115425 66 180 0.0 2.6 0.01 0.62 0.51 96 1009.4
20260507114504 66 175 0.0 1.7 0.01 0.62 0.51 96 1009.4
20260507113604 66 127 0.0 0.9 0.01 0.62 0.51 96 1009.7
20260507112704 66 195 0.0 0.9 0.00 0.61 0.50 96 1009.8
20260507111825 66 168 0.0 0.9 0.01 0.61 0.50 96 1009.7
20260507110904 66 175 0.0 0.9 0.01 0.61 0.50 96 1009.8
20260507110004 66 162 0.0 2.6 0.02 0.61 0.50 96 1009.8
20260507105404 66 163 0.0 2.6 0.03 0.61 0.50 96 1009.7
20260507104504 66 182 0.0 0.9 0.03 0.61 0.50 96 1009.5
20260507103604 66 219 0.0 0.9 0.03 0.61 0.50 96 1009.4
20260507102704 66 156 0.0 0.9 0.03 0.61 0.50 96 1009.4
20260507101825 66 159 0.0 1.7 0.03 0.60 0.49 96 1009.3
20260507100904 66 158 0.0 1.7 0.03 0.60 0.49 96 1009.3
20260507100004 66 153 0.0 1.7 0.02 0.59 0.48 96 1009.4
20260507095404 66 162 0.0 2.6 0.01 0.58 0.47 96 1009.4
20260507094504 66 160 0.0 0.9 0.01 0.58 0.47 96 1009.2
20260507093625 66 173 0.0 2.6 0.02 0.58 0.47 96 1009.3
20260507092704 66 187 0.0 2.6 0.04 0.58 0.47 96 1009.3
20260507091804 66 163 0.0 2.6 0.07 0.57 0.46 96 1009.2
20260507090904 65 156 0.0 1.7 0.10 0.57 0.46 96 1009.4
20260507090005 65 180 0.0 0.9 0.11 0.57 0.46 96 1009.4
20260507085404 65 177 0.0 1.7 0.12 0.57 0.46 96 1009.4
20260507084504 65 0 0.0 0.0 0.13 0.57 0.46 95 1009.7
20260507083604 65 85 0.0 0.9 0.13 0.56 0.45 95 1009.9
20260507082704 65 0 0.0 0.0 0.13 0.54 0.43 95 1010.1
20260507081804 65 0 0.0 0.0 0.09 0.50 0.39 95 1010.3
20260507080904 65 284 0.0 0.9 0.07 0.47 0.36 95 1010.3
20260507080004 65 284 0.0 0.9 0.08 0.46 0.35 95 1009.9
20260507075404 65 153 0.0 0.9 0.07 0.45 0.34 95 1010.2
20260507074504 65 149 0.0 0.9 0.06 0.44 0.33 95 1009.2
20260507073625 65 0 0.0 0.0 0.05 0.43 0.32 95 1010.3
20260507072725 65 0 0.0 0.0 0.03 0.41 0.30 95 1010.5
20260507071804 65 157 0.0 1.7 0.03 0.41 0.30 95 1010.4
20260507070904 65 155 0.0 0.9 0.02 0.40 0.29 95 1010.2
20260507070025 65 0 0.0 0.0 0.00 0.38 0.27 95 1010.6
20260507065404 65 0 0.0 0.0 0.00 0.38 0.27 95 1010.8